星链-36505(STARLINK-36505)

导读

STARLINK-36505是美国于2026年1月14日发射的星链卫星,隶属于SpaceX公司打造的星链星座。星链星座旨在构建全球卫星互联网,为全球偏远地区、海洋空域等场景提供高速宽带服务。该卫星加入星座后,将进一步扩充星链组网规模,提升全球网络覆盖能力与服务稳定性。

基本信息
目录编号:
67463
目录名称:
STARLINK-36505
国际标识:
2026-008U
轨道中心:
EARTH
卫星名称:
星链-36505
卫星全名:
星链-36505(STARLINK-36505)
卫星状态:
在轨 (已飞行234 天)
发射日期:
2026-01-14 UTC
国别 :
美国 (US)
星等 :
--
轨道信息
数据来源 国际轨道数据
星历时间: 2026-09-05T02:50:36+0800
16小时前
查看轨道信息
半长轴: 6861.161km
偏心率: 0.0001488
轨道倾角: 43.003°
近地点辐角 270.488°
升交点赤经 273.687°
平近点角 89.581°
近地点: 482.003km
远地点: 484.045km
周期: 94.266分钟
每日圈数: 15.275887
详细信息
固有亮度:
5
最大亮度:
2.5
卫星平台:
Starlink V1.0
覆盖范围:
全球
运营商:
太空探索技术公司
运营商所在国:
美国
制造商(研发单位):
太空探索技术公司
制造商所在国:
美国
使用方式:
暂无
卫星简介
Starlink 计划是 SpaceX 推出的全球卫星互联网项目,通过发射低轨道卫星,为全球尤其是偏远地区提供高速、低延迟的互联网服务。自 2019 年起,Starlink 已部署数千颗卫星,旨在缩小全球数字鸿沟,推动互联网普及。该项目还为军事、航空等行业提供通信支持,带来广泛经济效益。
2D轨道图
3D轨道图
轨道高度分析图
轨道倾角分析图
轨道综合分析图
查看轨道综合分析图
交会数据列表
事件ID 空间交会对象 最接近时刻(TCA) 交会距离 交会风险概率(CRP) 交会风险指数(CRI) 操作
CDM_260907-180906-400606-746321
2026-09-07T
18:09:44+0000
1.084 km
极远距离
1.567208E-5 中风险 0.59